Time,TemperatureF,DewpointF,PressureIn,WindDirection,WindDirectionDegrees,WindSpeedMPH,WindSpeedGustMPH,Humidity,HourlyPrecipIn,Conditions,Clouds,dailyrainin,SoftwareType,DateUTC
2013-12-19 00:01:00,49.5,42.9,30.25,NNE,30,0.0,0.0,78,0.00,,,0.00,Wunderground v.1.13,2013-12-19 05:01:00,
2013-12-19 00:02:00,49.4,42.8,30.25,NNE,30,0.0,0.0,78,0.00,,,0.00,Wunderground v.1.13,2013-12-19 05:02:00,
2013-12-19 00:03:00,49.4,42.8,30.25,NNE,30,0.0,0.0,78,0.00,,,0.00,Wunderground v.1.13,2013-12-19 05:03:00,
2013-12-19 00:05:00,49.5,42.9,30.25,NNE,30,0.0,0.0,78,0.00,,,0.00,Wunderground v.1.13,2013-12-19 05:05:00,
2013-12-19 00:07:00,49.5,42.9,30.25,NNE,30,0.0,0.0,78,0.00,,,0.00,Wunderground v.1.13,2013-12-19 05:07:00,
2013-12-19 00:12:00,49.5,42.9,30.25,NNE,30,0.0,0.0,78,0.00,,,0.00,Wunderground v.1.13,2013-12-19 05:12:00,
2013-12-19 00:17:00,49.4,42.8,30.25,NNE,30,0.0,0.0,78,0.00,,,0.00,Wunderground v.1.13,2013-12-19 05:17:00,
2013-12-19 00:20:00,49.3,42.7,30.25,NNE,30,0.0,0.0,78,0.00,,,0.00,Wunderground v.1.13,2013-12-19 05:20:00,
2013-12-19 00:26:00,49.2,42.6,30.25,NNE,30,0.0,0.0,78,0.00,,,0.00,Wunderground v.1.13,2013-12-19 05:26:00,
2013-12-19 00:31:00,49.2,42.6,30.25,NNE,30,0.0,0.0,78,0.00,,,0.00,Wunderground v.1.13,2013-12-19 05:31:00,
2013-12-19 00:36:00,49.2,42.6,30.25,NNE,30,0.0,0.0,78,0.00,,,0.00,Wunderground v.1.13,2013-12-19 05:36:00,
2013-12-19 00:41:00,49.3,42.7,30.25,NNE,30,0.0,0.0,78,0.00,,,0.00,Wunderground v.1.13,2013-12-19 05:41:00,
2013-12-19 00:47:00,49.6,43.0,30.25,NNE,30,0.0,0.0,78,0.00,,,0.00,Wunderground v.1.13,2013-12-19 05:47:00,
2013-12-19 00:52:00,49.9,43.3,30.25,NNE,30,0.0,0.0,78,0.00,,,0.00,Wunderground v.1.13,2013-12-19 05:52:00,
2013-12-19 00:57:00,49.9,43.3,30.25,NNE,30,0.0,0.0,78,0.00,,,0.00,Wunderground v.1.13,2013-12-19 05:57:00,
2013-12-19 01:02:00,49.9,43.3,30.25,NNE,30,0.0,0.0,78,0.00,,,0.00,Wunderground v.1.13,2013-12-19 06:02:00,
2013-12-19 01:07:00,49.9,43.0,30.25,NNE,30,0.0,0.0,77,0.00,,,0.00,Wunderground v.1.13,2013-12-19 06:07:00,
2013-12-19 01:13:00,50.0,43.1,30.25,NNE,30,0.0,0.0,77,0.00,,,0.00,Wunderground v.1.13,2013-12-19 06:13:00,
2013-12-19 01:18:00,50.0,43.1,30.25,NNE,30,0.0,0.0,77,0.00,,,0.00,Wunderground v.1.13,2013-12-19 06:18:00,
2013-12-19 01:23:00,50.1,43.2,30.25,NNE,30,0.0,0.0,77,0.00,,,0.00,Wunderground v.1.13,2013-12-19 06:23:00,
2013-12-19 01:29:00,50.0,43.1,30.25,NNE,30,0.0,0.0,77,0.00,,,0.00,Wunderground v.1.13,2013-12-19 06:29:00,
2013-12-19 01:35:00,49.9,43.0,30.25,NNE,30,0.0,0.0,77,0.00,,,0.00,Wunderground v.1.13,2013-12-19 06:35:00,
2013-12-19 01:40:00,49.8,42.9,30.25,NNE,30,0.0,0.0,77,0.00,,,0.00,Wunderground v.1.13,2013-12-19 06:40:00,
2013-12-19 01:45:00,49.6,42.7,30.25,NNE,30,0.0,0.0,77,0.00,,,0.00,Wunderground v.1.13,2013-12-19 06:45:00,
2013-12-19 01:50:00,49.4,42.5,30.25,NNE,30,0.0,0.0,77,0.00,,,0.00,Wunderground v.1.13,2013-12-19 06:50:00,
2013-12-19 01:56:00,49.3,42.4,30.25,NNE,30,0.0,0.0,77,0.00,,,0.00,Wunderground v.1.13,2013-12-19 06:56:00,
2013-12-19 02:01:00,49.4,42.5,30.25,NNE,30,0.0,0.0,77,0.00,,,0.00,Wunderground v.1.13,2013-12-19 07:01:00,
2013-12-19 02:06:00,49.4,42.5,30.25,NNE,30,0.0,0.0,77,0.00,,,0.00,Wunderground v.1.13,2013-12-19 07:06:00,
2013-12-19 02:11:00,49.5,42.6,30.25,NNE,30,0.0,0.0,77,0.00,,,0.00,Wunderground v.1.13,2013-12-19 07:11:00,
2013-12-19 02:16:00,49.6,42.7,30.25,NNE,30,0.0,0.0,77,0.00,,,0.00,Wunderground v.1.13,2013-12-19 07:16:00,
2013-12-19 02:21:00,49.6,42.7,30.25,NNE,30,0.0,0.0,77,0.00,,,0.00,Wunderground v.1.13,2013-12-19 07:21:00,
2013-12-19 02:26:00,49.6,42.7,30.25,NNE,30,0.0,0.0,77,0.00,,,0.00,Wunderground v.1.13,2013-12-19 07:26:00,
2013-12-19 02:31:00,49.7,42.8,30.25,NNE,30,0.0,0.0,77,0.00,,,0.00,Wunderground v.1.13,2013-12-19 07:31:00,
2013-12-19 02:37:00,49.7,42.8,30.25,NNE,30,0.0,0.0,77,0.00,,,0.00,Wunderground v.1.13,2013-12-19 07:37:00,
2013-12-19 02:42:00,49.9,43.0,30.25,NNE,30,0.0,0.0,77,0.00,,,0.00,Wunderground v.1.13,2013-12-19 07:42:00,
2013-12-19 02:47:00,49.9,43.0,30.25,NNE,30,0.0,0.0,77,0.00,,,0.00,Wunderground v.1.13,2013-12-19 07:47:00,
2013-12-19 02:52:00,49.8,42.9,30.25,NNE,30,0.0,0.0,77,0.00,,,0.00,Wunderground v.1.13,2013-12-19 07:52:00,
2013-12-19 02:57:00,49.7,42.8,30.25,NNE,30,0.0,0.0,77,0.00,,,0.00,Wunderground v.1.13,2013-12-19 07:57:00,
2013-12-19 03:02:00,49.7,42.8,30.25,NNE,30,0.0,0.0,77,0.00,,,0.00,Wunderground v.1.13,2013-12-19 08:02:00,
2013-12-19 03:07:00,49.7,42.8,30.25,NNE,30,0.0,0.0,77,0.00,,,0.00,Wunderground v.1.13,2013-12-19 08:07:00,
2013-12-19 03:12:00,49.7,42.8,30.25,NNE,30,0.0,0.0,77,0.00,,,0.00,Wunderground v.1.13,2013-12-19 08:12:00,
2013-12-19 03:17:00,49.7,42.8,30.25,NNE,30,0.0,0.0,77,0.00,,,0.00,Wunderground v.1.13,2013-12-19 08:17:00,
2013-12-19 03:22:00,49.5,42.6,30.25,NNE,30,0.0,0.0,77,0.00,,,0.00,Wunderground v.1.13,2013-12-19 08:22:00,
2013-12-19 03:27:00,49.4,42.8,30.25,NNE,30,0.0,0.0,78,0.00,,,0.00,Wunderground v.1.13,2013-12-19 08:27:00,
2013-12-19 03:32:00,49.3,42.7,30.25,NNE,30,0.0,0.0,78,0.00,,,0.00,Wunderground v.1.13,2013-12-19 08:32:00,
2013-12-19 03:37:00,49.1,42.2,30.25,NNE,30,0.0,0.0,77,0.00,,,0.00,Wunderground v.1.13,2013-12-19 08:37:00,
2013-12-19 03:42:00,48.9,42.0,30.25,NNE,30,0.0,0.0,77,0.00,,,0.00,Wunderground v.1.13,2013-12-19 08:42:00,
2013-12-19 03:47:00,48.7,42.1,30.25,NNE,30,0.0,0.0,78,0.00,,,0.00,Wunderground v.1.13,2013-12-19 08:47:00,
2013-12-19 03:52:00,48.6,42.0,30.25,NNE,30,0.0,0.0,78,0.00,,,0.00,Wunderground v.1.13,2013-12-19 08:52:00,
2013-12-19 03:57:00,48.5,42.0,30.25,NNE,30,0.0,0.0,78,0.00,,,0.00,Wunderground v.1.13,2013-12-19 08:57:00,
2013-12-19 04:02:00,48.4,41.9,30.25,NNE,30,0.0,0.0,78,0.00,,,0.00,Wunderground v.1.13,2013-12-19 09:02:00,
2013-12-19 04:07:00,48.3,41.8,30.25,NNE,30,0.0,0.0,78,0.00,,,0.00,Wunderground v.1.13,2013-12-19 09:07:00,
2013-12-19 04:13:00,48.3,41.8,30.25,NNE,30,0.0,0.0,78,0.00,,,0.00,Wunderground v.1.13,2013-12-19 09:13:00,
2013-12-19 04:18:00,48.1,41.6,30.25,NNE,30,0.0,0.0,78,0.00,,,0.00,Wunderground v.1.13,2013-12-19 09:18:00,
2013-12-19 04:23:00,48.0,41.5,30.24,NNE,30,0.0,0.0,78,0.00,,,0.00,Wunderground v.1.13,2013-12-19 09:23:00,
2013-12-19 04:28:00,47.8,41.3,30.24,NNE,30,0.0,0.0,78,0.00,,,0.00,Wunderground v.1.13,2013-12-19 09:28:00,
2013-12-19 04:33:00,47.7,41.2,30.24,NNE,30,0.0,0.0,78,0.00,,,0.00,Wunderground v.1.13,2013-12-19 09:33:00,
2013-12-19 04:38:00,47.6,41.1,30.24,NNE,30,0.0,0.0,78,0.00,,,0.00,Wunderground v.1.13,2013-12-19 09:38:00,
2013-12-19 04:43:00,47.5,41.0,30.24,NNE,30,0.0,0.0,78,0.00,,,0.00,Wunderground v.1.13,2013-12-19 09:43:00,
2013-12-19 04:48:00,47.4,40.9,30.24,NNE,30,0.0,0.0,78,0.00,,,0.00,Wunderground v.1.13,2013-12-19 09:48:00,
2013-12-19 04:53:00,47.3,40.8,30.24,NNE,30,0.0,0.0,78,0.00,,,0.00,Wunderground v.1.13,2013-12-19 09:53:00,
2013-12-19 04:58:00,47.2,40.7,30.24,NNE,30,0.0,0.0,78,0.00,,,0.00,Wunderground v.1.13,2013-12-19 09:58:00,
2013-12-19 05:03:00,47.1,40.6,30.24,NNE,30,0.0,0.0,78,0.00,,,0.00,Wunderground v.1.13,2013-12-19 10:03:00,
2013-12-19 05:08:00,47.0,40.5,30.24,NNE,30,0.0,0.0,78,0.00,,,0.00,Wunderground v.1.13,2013-12-19 10:08:00,
2013-12-19 05:13:00,46.8,40.3,30.24,NNE,30,0.0,0.0,78,0.00,,,0.00,Wunderground v.1.13,2013-12-19 10:13:00,
2013-12-19 05:18:00,46.7,40.2,30.24,NNE,30,0.0,0.0,78,0.00,,,0.00,Wunderground v.1.13,2013-12-19 10:18:00,
2013-12-19 05:23:00,46.7,40.2,30.24,NNE,30,0.0,0.0,78,0.00,,,0.00,Wunderground v.1.13,2013-12-19 10:23:00,
2013-12-19 05:28:00,46.6,40.1,30.24,NNE,30,0.0,0.0,78,0.00,,,0.00,Wunderground v.1.13,2013-12-19 10:28:00,
2013-12-19 05:33:00,46.5,40.0,30.23,NNE,30,0.0,0.0,78,0.00,,,0.00,Wunderground v.1.13,2013-12-19 10:33:00,
2013-12-19 05:38:00,46.5,40.0,30.24,NNE,30,0.0,0.0,78,0.00,,,0.00,Wunderground v.1.13,2013-12-19 10:38:00,
2013-12-19 05:43:00,46.4,39.9,30.24,NNE,30,0.0,0.0,78,0.00,,,0.00,Wunderground v.1.13,2013-12-19 10:43:00,
2013-12-19 05:48:00,46.5,40.0,30.24,NNE,30,0.0,0.0,78,0.00,,,0.00,Wunderground v.1.13,2013-12-19 10:48:00,
2013-12-19 05:53:00,46.6,40.1,30.24,NNE,30,0.0,0.0,78,0.00,,,0.00,Wunderground v.1.13,2013-12-19 10:53:00,
2013-12-19 05:58:00,46.7,40.2,30.23,NNE,30,0.0,0.0,78,0.00,,,0.00,Wunderground v.1.13,2013-12-19 10:58:00,
2013-12-19 06:03:00,46.9,40.4,30.24,NNE,30,0.0,0.0,78,0.00,,,0.00,Wunderground v.1.13,2013-12-19 11:03:00,
2013-12-19 06:08:00,47.0,40.5,30.24,NNE,30,0.0,0.0,78,0.00,,,0.00,Wunderground v.1.13,2013-12-19 11:08:00,
2013-12-19 06:13:00,47.3,41.1,30.24,NNE,30,0.0,0.0,79,0.00,,,0.00,Wunderground v.1.13,2013-12-19 11:13:00,
2013-12-19 06:18:00,47.3,41.1,30.24,NNE,30,0.0,0.0,79,0.00,,,0.00,Wunderground v.1.13,2013-12-19 11:18:00,
2013-12-19 06:23:00,47.6,41.4,30.24,NNE,30,0.0,0.0,79,0.00,,,0.00,Wunderground v.1.13,2013-12-19 11:23:00,
2013-12-19 06:28:00,47.6,41.4,30.24,NNE,30,0.0,0.0,79,0.00,,,0.00,Wunderground v.1.13,2013-12-19 11:28:00,
2013-12-19 06:33:00,47.6,41.4,30.24,NNE,30,0.0,0.0,79,0.00,,,0.00,Wunderground v.1.13,2013-12-19 11:33:00,
2013-12-19 06:38:00,47.6,41.4,30.24,NNE,30,0.0,0.0,79,0.00,,,0.00,Wunderground v.1.13,2013-12-19 11:38:00,
2013-12-19 06:43:00,47.6,41.4,30.23,NNE,30,0.0,0.0,79,0.00,,,0.00,Wunderground v.1.13,2013-12-19 11:43:00,
2013-12-19 06:48:00,48.1,41.9,30.23,NNE,30,0.0,3.0,79,0.00,,,0.00,Wunderground v.1.13,2013-12-19 11:48:00,
2013-12-19 06:53:00,48.4,42.2,30.24,NNE,30,0.0,0.0,79,0.00,,,0.00,Wunderground v.1.13,2013-12-19 11:53:00,
2013-12-19 06:58:00,48.5,42.3,30.24,NNE,30,0.0,0.0,79,0.00,,,0.00,Wunderground v.1.13,2013-12-19 11:58:00,
2013-12-19 07:03:00,48.6,42.4,30.24,NNE,30,0.0,0.0,79,0.00,,,0.00,Wunderground v.1.13,2013-12-19 12:03:00,
2013-12-19 07:08:00,48.5,42.3,30.24,NNE,30,0.0,1.0,79,0.00,,,0.00,Wunderground v.1.13,2013-12-19 12:08:00,
2013-12-19 07:13:00,48.4,42.2,30.24,NNE,30,0.0,0.0,79,0.00,,,0.00,Wunderground v.1.13,2013-12-19 12:13:00,
2013-12-19 07:18:00,48.1,41.9,30.24,NNE,30,0.0,0.0,79,0.00,,,0.00,Wunderground v.1.13,2013-12-19 12:18:00,
2013-12-19 07:23:00,47.9,41.7,30.24,NNE,30,0.0,0.0,79,0.00,,,0.00,Wunderground v.1.13,2013-12-19 12:23:00,
2013-12-19 07:29:00,47.8,41.6,30.24,NNE,30,0.0,0.0,79,0.00,,,0.00,Wunderground v.1.13,2013-12-19 12:29:00,
2013-12-19 07:33:00,47.9,41.7,30.25,NNE,30,0.0,0.0,79,0.00,,,0.00,Wunderground v.1.13,2013-12-19 12:33:00,
2013-12-19 07:39:00,48.1,41.9,30.25,NNE,30,0.0,0.0,79,0.00,,,0.00,Wunderground v.1.13,2013-12-19 12:39:00,
2013-12-19 07:44:00,48.4,42.2,30.25,NNE,30,0.0,0.0,79,0.00,,,0.00,Wunderground v.1.13,2013-12-19 12:44:00,
2013-12-19 07:48:00,48.6,42.4,30.25,NNE,30,0.0,0.0,79,0.00,,,0.00,Wunderground v.1.13,2013-12-19 12:48:00,
2013-12-19 07:54:00,49.0,42.8,30.25,NNE,30,0.0,3.0,79,0.00,,,0.00,Wunderground v.1.13,2013-12-19 12:54:00,
2013-12-19 07:59:00,49.6,43.0,30.25,NNE,30,0.0,3.0,78,0.00,,,0.00,Wunderground v.1.13,2013-12-19 12:59:00,
2013-12-19 08:04:00,50.3,44.0,30.26,NNE,30,0.0,0.0,79,0.00,,,0.00,Wunderground v.1.13,2013-12-19 13:04:00,
2013-12-19 08:09:00,51.0,44.7,30.26,NNE,30,1.0,3.0,79,0.00,,,0.00,Wunderground v.1.13,2013-12-19 13:09:00,
2013-12-19 08:14:00,51.8,45.2,30.26,NNE,30,0.0,4.0,78,0.00,,,0.00,Wunderground v.1.13,2013-12-19 13:14:00,
2013-12-19 08:19:00,52.5,45.8,30.25,NNE,33,0.0,5.0,78,0.00,,,0.00,Wunderground v.1.13,2013-12-19 13:19:00,
2013-12-19 08:24:00,53.0,46.0,30.26,NNE,33,0.0,3.0,77,0.00,,,0.00,Wunderground v.1.13,2013-12-19 13:24:00,
2013-12-19 08:29:00,53.5,46.1,30.26,NE,38,0.0,6.0,76,0.00,,,0.00,Wunderground v.1.13,2013-12-19 13:29:00,
2013-12-19 08:34:00,54.0,46.6,30.26,NE,42,0.0,6.0,76,0.00,,,0.00,Wunderground v.1.13,2013-12-19 13:34:00,
2013-12-19 08:39:00,54.7,46.9,30.26,NE,44,3.0,6.0,75,0.00,,,0.00,Wunderground v.1.13,2013-12-19 13:39:00,
2013-12-19 08:44:00,55.3,47.2,30.26,NE,49,4.0,6.0,74,0.00,,,0.00,Wunderground v.1.13,2013-12-19 13:44:00,
2013-12-19 08:49:00,55.7,47.5,30.26,NE,49,0.0,5.0,74,0.00,,,0.00,Wunderground v.1.13,2013-12-19 13:49:00,
2013-12-19 08:54:00,56.0,47.5,30.26,NE,51,3.0,6.0,73,0.00,,,0.00,Wunderground v.1.13,2013-12-19 13:54:00,
2013-12-19 08:59:00,56.4,47.9,30.26,NE,51,0.0,2.0,73,0.00,,,0.00,Wunderground v.1.13,2013-12-19 13:59:00,
2013-12-19 09:04:00,56.8,48.2,30.26,NE,53,4.0,6.0,73,0.00,,,0.00,Wunderground v.1.13,2013-12-19 14:04:00,
2013-12-19 09:09:00,57.2,48.6,30.26,NE,52,4.0,6.0,73,0.00,,,0.00,Wunderground v.1.13,2013-12-19 14:09:00,
2013-12-19 09:14:00,57.5,48.9,30.27,NE,53,0.0,5.0,73,0.00,,,0.00,Wunderground v.1.13,2013-12-19 14:14:00,
2013-12-19 09:19:00,57.9,49.3,30.27,NE,53,0.0,3.0,73,0.00,,,0.00,Wunderground v.1.13,2013-12-19 14:19:00,
2013-12-19 09:24:00,58.3,49.3,30.27,NE,52,1.0,6.0,72,0.00,,,0.00,Wunderground v.1.13,2013-12-19 14:24:00,
2013-12-19 09:29:00,59.0,50.4,30.27,NE,53,2.0,5.0,73,0.00,,,0.00,Wunderground v.1.13,2013-12-19 14:29:00,
2013-12-19 09:34:00,59.0,50.0,30.27,NE,37,2.0,7.0,72,0.00,,,0.00,Wunderground v.1.13,2013-12-19 14:34:00,
2013-12-19 09:39:00,59.3,50.3,30.27,NE,37,1.0,5.0,72,0.00,,,0.00,Wunderground v.1.13,2013-12-19 14:39:00,
2013-12-19 09:44:00,59.8,50.8,30.27,NE,37,3.0,6.0,72,0.00,,,0.00,Wunderground v.1.13,2013-12-19 14:44:00,
2013-12-19 09:49:00,60.1,51.0,30.27,NE,37,4.0,5.0,72,0.00,,,0.00,Wunderground v.1.13,2013-12-19 14:49:00,
2013-12-19 09:54:00,60.8,51.7,30.27,NE,37,0.0,3.0,72,0.00,,,0.00,Wunderground v.1.13,2013-12-19 14:54:00,
2013-12-19 09:59:00,61.4,52.3,30.27,NE,37,1.0,1.0,72,0.00,,,0.00,Wunderground v.1.13,2013-12-19 14:59:00,
2013-12-19 10:05:00,61.8,52.3,30.27,NE,42,2.0,7.0,71,0.00,,,0.00,Wunderground v.1.13,2013-12-19 15:05:00,
2013-12-19 10:10:00,62.1,52.6,30.27,NE,44,3.0,5.0,71,0.00,,,0.00,Wunderground v.1.13,2013-12-19 15:10:00,
2013-12-19 10:15:00,62.3,52.8,30.27,ENE,78,4.0,8.0,71,0.00,,,0.00,Wunderground v.1.13,2013-12-19 15:15:00,
2013-12-19 10:20:00,62.7,53.2,30.27,NE,36,7.0,7.0,71,0.00,,,0.00,Wunderground v.1.13,2013-12-19 15:20:00,
2013-12-19 10:25:00,62.9,53.4,30.27,ENE,67,3.0,6.0,71,0.00,,,0.00,Wunderground v.1.13,2013-12-19 15:25:00,
2013-12-19 10:30:00,63.2,53.3,30.27,ENE,59,2.0,9.0,70,0.00,,,0.00,Wunderground v.1.13,2013-12-19 15:30:00,
2013-12-19 10:35:00,63.6,53.6,30.27,NE,56,6.0,9.0,70,0.00,,,0.00,Wunderground v.1.13,2013-12-19 15:35:00,
2013-12-19 10:40:00,64.0,54.0,30.27,NNE,29,0.0,9.0,70,0.00,,,0.00,Wunderground v.1.13,2013-12-19 15:40:00,
2013-12-19 10:45:00,64.3,53.9,30.26,NE,37,2.0,9.0,69,0.00,,,0.00,Wunderground v.1.13,2013-12-19 15:45:00,
2013-12-19 10:50:00,64.6,54.2,30.26,ENE,59,2.0,10.0,69,0.00,,,0.00,Wunderground v.1.13,2013-12-19 15:50:00,
2013-12-19 10:55:00,64.8,54.4,30.26,NE,37,4.0,4.0,69,0.00,,,0.00,Wunderground v.1.13,2013-12-19 15:55:00,
2013-12-19 11:00:00,64.9,54.5,30.26,NE,50,3.0,3.0,69,0.00,,,0.00,Wunderground v.1.13,2013-12-19 16:00:00,
2013-12-19 11:05:00,65.4,55.0,30.26,East,84,0.0,3.0,69,0.00,,,0.00,Wunderground v.1.13,2013-12-19 16:05:00,
2013-12-19 11:10:00,66.3,55.4,30.26,East,83,6.0,6.0,68,0.00,,,0.00,Wunderground v.1.13,2013-12-19 16:10:00,
2013-12-19 11:15:00,66.5,55.2,30.25,ENE,68,1.0,3.0,67,0.00,,,0.00,Wunderground v.1.13,2013-12-19 16:15:00,
2013-12-19 11:20:00,66.9,55.6,30.25,ENE,68,0.0,3.0,67,0.00,,,0.00,Wunderground v.1.13,2013-12-19 16:20:00,
2013-12-19 11:25:00,67.6,56.2,30.25,ENE,67,0.0,2.0,67,0.00,,,0.00,Wunderground v.1.13,2013-12-19 16:25:00,
2013-12-19 11:30:00,67.7,55.9,30.25,NNE,32,4.0,4.0,66,0.00,,,0.00,Wunderground v.1.13,2013-12-19 16:30:00,
2013-12-19 11:35:00,68.2,56.4,30.25,ENE,63,0.0,2.0,66,0.00,,,0.00,Wunderground v.1.13,2013-12-19 16:35:00,
2013-12-19 11:40:00,68.6,56.4,30.25,NE,56,3.0,4.0,65,0.00,,,0.00,Wunderground v.1.13,2013-12-19 16:40:00,
2013-12-19 11:45:00,69.4,57.1,30.24,ENE,57,0.0,1.0,65,0.00,,,0.00,Wunderground v.1.13,2013-12-19 16:45:00,
2013-12-19 11:50:00,70.4,57.6,30.24,ENE,57,0.0,0.0,64,0.00,,,0.00,Wunderground v.1.13,2013-12-19 16:50:00,
2013-12-19 11:55:00,71.6,57.9,30.24,ENE,59,0.0,0.0,62,0.00,,,0.00,Wunderground v.1.13,2013-12-19 16:55:00,
2013-12-19 12:00:00,72.0,57.8,30.23,ENE,78,0.0,0.0,61,0.00,,,0.00,Wunderground v.1.13,2013-12-19 17:00:00,
2013-12-19 12:05:00,72.8,58.1,30.23,East,80,0.0,0.0,60,0.00,,,0.00,Wunderground v.1.13,2013-12-19 17:05:00,
2013-12-19 12:10:00,73.1,57.9,30.23,ENE,78,1.0,2.0,59,0.00,,,0.00,Wunderground v.1.13,2013-12-19 17:10:00,
2013-12-19 12:15:00,72.9,57.7,30.23,East,80,2.0,4.0,59,0.00,,,0.00,Wunderground v.1.13,2013-12-19 17:15:00,
2013-12-19 12:20:00,72.7,58.0,30.22,East,86,0.0,2.0,60,0.00,,,0.00,Wunderground v.1.13,2013-12-19 17:20:00,
2013-12-19 12:25:00,72.8,58.1,30.22,East,80,0.0,2.0,60,0.00,,,0.00,Wunderground v.1.13,2013-12-19 17:25:00,
2013-12-19 12:30:00,72.9,57.7,30.22,SSE,150,1.0,2.0,59,0.00,,,0.00,Wunderground v.1.13,2013-12-19 17:30:00,
2013-12-19 12:35:00,74.0,58.8,30.21,SSE,153,1.0,2.0,59,0.00,,,0.00,Wunderground v.1.13,2013-12-19 17:35:00,
2013-12-19 12:41:00,74.6,58.8,30.21,SSE,154,0.0,2.0,58,0.00,,,0.00,Wunderground v.1.13,2013-12-19 17:41:00,
2013-12-19 12:46:00,75.1,58.8,30.21,SSE,153,0.0,1.0,57,0.00,,,0.00,Wunderground v.1.13,2013-12-19 17:46:00,
2013-12-19 12:51:00,75.5,58.7,30.20,SSE,151,0.0,1.0,56,0.00,,,0.00,Wunderground v.1.13,2013-12-19 17:51:00,
2013-12-19 12:56:00,75.7,58.9,30.20,ESE,110,0.0,1.0,56,0.00,,,0.00,Wunderground v.1.13,2013-12-19 17:56:00,
2013-12-19 13:01:00,75.7,58.4,30.20,ENE,66,0.0,0.0,55,0.00,,,0.00,Wunderground v.1.13,2013-12-19 18:01:00,
2013-12-19 13:05:00,75.2,58.4,30.19,NE,49,3.0,3.0,56,0.00,,,0.00,Wunderground v.1.13,2013-12-19 18:05:00,
2013-12-19 13:10:00,74.9,58.1,30.19,ENE,61,0.0,1.0,56,0.00,,,0.00,Wunderground v.1.13,2013-12-19 18:10:00,
2013-12-19 13:15:00,75.7,58.4,30.19,ENE,62,0.0,0.0,55,0.00,,,0.00,Wunderground v.1.13,2013-12-19 18:15:00,
2013-12-19 13:20:00,75.6,57.8,30.19,ENE,77,4.0,4.0,54,0.00,,,0.00,Wunderground v.1.13,2013-12-19 18:20:00,
2013-12-19 13:25:00,74.6,57.4,30.18,NE,38,0.0,1.0,55,0.00,,,0.00,Wunderground v.1.13,2013-12-19 18:25:00,
2013-12-19 13:30:00,75.1,57.8,30.18,NE,43,0.0,1.0,55,0.00,,,0.00,Wunderground v.1.13,2013-12-19 18:30:00,
2013-12-19 13:35:00,75.6,57.3,30.18,NE,44,1.0,1.0,53,0.00,,,0.00,Wunderground v.1.13,2013-12-19 18:35:00,
2013-12-19 13:40:00,75.5,57.2,30.18,SSE,160,0.0,1.0,53,0.00,,,0.00,Wunderground v.1.13,2013-12-19 18:40:00,
2013-12-19 13:45:00,75.4,57.6,30.18,ENE,74,0.0,1.0,54,0.00,,,0.00,Wunderground v.1.13,2013-12-19 18:45:00,
2013-12-19 13:50:00,76.1,57.7,30.18,ENE,74,0.0,0.0,53,0.00,,,0.00,Wunderground v.1.13,2013-12-19 18:50:00,
2013-12-19 13:55:00,75.6,56.7,30.18,NE,40,0.0,1.0,52,0.00,,,0.00,Wunderground v.1.13,2013-12-19 18:55:00,
2013-12-19 14:00:00,75.8,56.4,30.18,NE,46,4.0,5.0,51,0.00,,,0.00,Wunderground v.1.13,2013-12-19 19:00:00,
2013-12-19 14:05:00,74.8,56.0,30.17,NE,43,3.0,3.0,52,0.00,,,0.00,Wunderground v.1.13,2013-12-19 19:05:00,
2013-12-19 14:11:00,74.5,56.2,30.17,NE,52,0.0,2.0,53,0.00,,,0.00,Wunderground v.1.13,2013-12-19 19:11:00,
2013-12-19 14:16:00,75.3,56.5,30.18,ENE,57,0.0,1.0,52,0.00,,,0.00,Wunderground v.1.13,2013-12-19 19:16:00,
2013-12-19 14:21:00,76.4,56.4,30.17,ENE,61,0.0,0.0,50,0.00,,,0.00,Wunderground v.1.13,2013-12-19 19:21:00,
2013-12-19 14:26:00,76.9,55.7,30.17,ENE,71,2.0,7.0,48,0.00,,,0.00,Wunderground v.1.13,2013-12-19 19:26:00,
2013-12-19 14:31:00,76.7,55.5,30.16,NNE,32,0.0,1.0,48,0.00,,,0.00,Wunderground v.1.13,2013-12-19 19:31:00,
2013-12-19 14:36:00,76.9,55.7,30.16,ENE,74,0.0,2.0,48,0.00,,,0.00,Wunderground v.1.13,2013-12-19 19:36:00,
2013-12-19 14:41:00,77.5,55.7,30.16,ENE,75,0.0,0.0,47,0.00,,,0.00,Wunderground v.1.13,2013-12-19 19:41:00,
2013-12-19 14:46:00,78.1,55.6,30.16,ENE,75,0.0,1.0,46,0.00,,,0.00,Wunderground v.1.13,2013-12-19 19:46:00,
2013-12-19 14:51:00,77.8,55.4,30.16,NE,55,0.0,3.0,46,0.00,,,0.00,Wunderground v.1.13,2013-12-19 19:51:00,
2013-12-19 14:56:00,77.9,55.5,30.16,ENE,60,0.0,1.0,46,0.00,,,0.00,Wunderground v.1.13,2013-12-19 19:56:00,
2013-12-19 15:01:00,77.6,54.0,30.16,ENE,63,0.0,3.0,44,0.00,,,0.00,Wunderground v.1.13,2013-12-19 20:01:00,
2013-12-19 15:06:00,77.0,54.0,30.16,ENE,63,1.0,3.0,45,0.00,,,0.00,Wunderground v.1.13,2013-12-19 20:06:00,
2013-12-19 15:11:00,76.3,54.0,30.16,NE,38,2.0,2.0,46,0.00,,,0.00,Wunderground v.1.13,2013-12-19 20:11:00,
2013-12-19 15:16:00,75.9,53.6,30.16,East,88,0.0,5.0,46,0.00,,,0.00,Wunderground v.1.13,2013-12-19 20:16:00,
2013-12-19 15:21:00,75.6,53.4,30.16,NE,42,0.0,4.0,46,0.00,,,0.00,Wunderground v.1.13,2013-12-19 20:21:00,
2013-12-19 15:26:00,75.4,53.2,30.15,ENE,71,0.0,2.0,46,0.00,,,0.00,Wunderground v.1.13,2013-12-19 20:26:00,
2013-12-19 15:31:00,75.5,53.3,30.15,ENE,75,0.0,3.0,46,0.00,,,0.00,Wunderground v.1.13,2013-12-19 20:31:00,
2013-12-19 15:36:00,75.8,53.5,30.15,ENE,71,0.0,0.0,46,0.00,,,0.00,Wunderground v.1.13,2013-12-19 20:36:00,
2013-12-19 15:41:00,75.8,52.9,30.15,ENE,72,0.0,4.0,45,0.00,,,0.00,Wunderground v.1.13,2013-12-19 20:41:00,
2013-12-19 15:46:00,76.1,53.2,30.15,ENE,77,0.0,5.0,45,0.00,,,0.00,Wunderground v.1.13,2013-12-19 20:46:00,
2013-12-19 15:51:00,76.0,52.5,30.15,NE,38,0.0,7.0,44,0.00,,,0.00,Wunderground v.1.13,2013-12-19 20:51:00,
2013-12-19 15:56:00,76.0,53.1,30.15,ENE,69,0.0,1.0,45,0.00,,,0.00,Wunderground v.1.13,2013-12-19 20:56:00,
2013-12-19 16:01:00,76.1,52.0,30.15,NE,40,0.0,5.0,43,0.00,,,0.00,Wunderground v.1.13,2013-12-19 21:01:00,
2013-12-19 16:06:00,76.5,53.0,30.15,NE,40,0.0,0.0,44,0.00,,,0.00,Wunderground v.1.13,2013-12-19 21:06:00,
2013-12-19 16:11:00,76.3,52.2,30.15,ENE,64,0.0,0.0,43,0.00,,,0.00,Wunderground v.1.13,2013-12-19 21:11:00,
2013-12-19 16:16:00,75.9,52.4,30.15,NE,38,0.0,4.0,44,0.00,,,0.00,Wunderground v.1.13,2013-12-19 21:16:00,
2013-12-19 16:21:00,75.7,52.2,30.15,ENE,73,0.0,3.0,44,0.00,,,0.00,Wunderground v.1.13,2013-12-19 21:21:00,
2013-12-19 16:26:00,75.7,52.8,30.15,ENE,73,0.0,0.0,45,0.00,,,0.00,Wunderground v.1.13,2013-12-19 21:26:00,
2013-12-19 16:31:00,75.8,52.9,30.15,ENE,72,0.0,2.0,45,0.00,,,0.00,Wunderground v.1.13,2013-12-19 21:31:00,
2013-12-19 16:36:00,75.8,52.3,30.15,ENE,75,3.0,3.0,44,0.00,,,0.00,Wunderground v.1.13,2013-12-19 21:36:00,
2013-12-19 16:42:00,75.6,52.8,30.16,ENE,74,0.0,0.0,45,0.00,,,0.00,Wunderground v.1.13,2013-12-19 21:42:00,
2013-12-19 16:47:00,75.5,53.3,30.16,ENE,74,0.0,0.0,46,0.00,,,0.00,Wunderground v.1.13,2013-12-19 21:47:00,
2013-12-19 16:52:00,75.2,52.4,30.16,ENE,74,0.0,0.0,45,0.00,,,0.00,Wunderground v.1.13,2013-12-19 21:52:00,
2013-12-19 16:57:00,74.8,52.6,30.16,ENE,74,0.0,0.0,46,0.00,,,0.00,Wunderground v.1.13,2013-12-19 21:57:00,
2013-12-19 17:02:00,74.4,52.3,30.16,ENE,74,0.0,0.0,46,0.00,,,0.00,Wunderground v.1.13,2013-12-19 22:02:00,
2013-12-19 17:07:00,74.1,52.6,30.16,ENE,74,0.0,0.0,47,0.00,,,0.00,Wunderground v.1.13,2013-12-19 22:07:00,
2013-12-19 17:12:00,73.6,52.7,30.16,ENE,74,0.0,0.0,48,0.00,,,0.00,Wunderground v.1.13,2013-12-19 22:12:00,
2013-12-19 17:17:00,73.2,52.9,30.16,ENE,74,0.0,0.0,49,0.00,,,0.00,Wunderground v.1.13,2013-12-19 22:17:00,
2013-12-19 17:22:00,72.8,53.1,30.16,ENE,74,0.0,0.0,50,0.00,,,0.00,Wunderground v.1.13,2013-12-19 22:22:00,
2013-12-19 17:27:00,72.4,52.7,30.16,ENE,74,0.0,0.0,50,0.00,,,0.00,Wunderground v.1.13,2013-12-19 22:27:00,
2013-12-19 17:32:00,72.0,52.9,30.16,ENE,74,0.0,0.0,51,0.00,,,0.00,Wunderground v.1.13,2013-12-19 22:32:00,
2013-12-19 17:37:00,71.5,52.9,30.16,ENE,74,0.0,0.0,52,0.00,,,0.00,Wunderground v.1.13,2013-12-19 22:37:00,
2013-12-19 17:42:00,71.1,53.1,30.16,ENE,74,0.0,0.0,53,0.00,,,0.00,Wunderground v.1.13,2013-12-19 22:42:00,
2013-12-19 17:47:00,70.5,53.1,30.16,ENE,74,0.0,0.0,54,0.00,,,0.00,Wunderground v.1.13,2013-12-19 22:47:00,
2013-12-19 17:52:00,70.0,53.1,30.16,ENE,74,0.0,0.0,55,0.00,,,0.00,Wunderground v.1.13,2013-12-19 22:52:00,
2013-12-19 17:57:00,69.5,53.1,30.16,ENE,74,0.0,0.0,56,0.00,,,0.00,Wunderground v.1.13,2013-12-19 22:57:00,
2013-12-19 18:02:00,69.1,52.7,30.16,ENE,74,0.0,0.0,56,0.00,,,0.00,Wunderground v.1.13,2013-12-19 23:02:00,
2013-12-19 18:07:00,68.6,52.8,30.16,ENE,74,0.0,0.0,57,0.00,,,0.00,Wunderground v.1.13,2013-12-19 23:07:00,
2013-12-19 18:12:00,68.1,52.3,30.16,ENE,74,0.0,0.0,57,0.00,,,0.00,Wunderground v.1.13,2013-12-19 23:12:00,
2013-12-19 18:17:00,67.8,52.9,30.16,ENE,74,0.0,0.0,59,0.00,,,0.00,Wunderground v.1.13,2013-12-19 23:17:00,
2013-12-19 18:22:00,67.3,52.5,30.16,ENE,74,0.0,0.0,59,0.00,,,0.00,Wunderground v.1.13,2013-12-19 23:22:00,
2013-12-19 18:27:00,66.7,52.4,30.17,ENE,74,0.0,0.0,60,0.00,,,0.00,Wunderground v.1.13,2013-12-19 23:27:00,
2013-12-19 18:32:00,66.2,52.3,30.17,ENE,74,0.0,0.0,61,0.00,,,0.00,Wunderground v.1.13,2013-12-19 23:32:00,
2013-12-19 18:37:00,65.7,51.9,30.17,ENE,74,0.0,0.0,61,0.00,,,0.00,Wunderground v.1.13,2013-12-19 23:37:00,
2013-12-19 18:42:00,65.3,51.9,30.17,ENE,74,0.0,0.0,62,0.00,,,0.00,Wunderground v.1.13,2013-12-19 23:42:00,
2013-12-19 18:47:00,65.0,52.1,30.17,ENE,74,0.0,0.0,63,0.00,,,0.00,Wunderground v.1.13,2013-12-19 23:47:00,
2013-12-19 18:52:00,64.7,51.8,30.17,ENE,74,0.0,0.0,63,0.00,,,0.00,Wunderground v.1.13,2013-12-19 23:52:00,
2013-12-19 18:57:00,64.4,52.0,30.17,ENE,74,0.0,0.0,64,0.00,,,0.00,Wunderground v.1.13,2013-12-19 23:57:00,
2013-12-19 19:02:00,64.1,52.1,30.17,ENE,74,0.0,0.0,65,0.00,,,0.00,Wunderground v.1.13,2013-12-20 00:02:00,
2013-12-19 19:07:00,63.9,51.9,30.17,ENE,74,0.0,0.0,65,0.00,,,0.00,Wunderground v.1.13,2013-12-20 00:07:00,
2013-12-19 19:12:00,63.7,52.1,30.17,ENE,74,0.0,0.0,66,0.00,,,0.00,Wunderground v.1.13,2013-12-20 00:12:00,
2013-12-19 19:17:00,63.6,52.0,30.16,ENE,74,0.0,0.0,66,0.00,,,0.00,Wunderground v.1.13,2013-12-20 00:17:00,
2013-12-19 19:22:00,63.4,51.8,30.16,ENE,74,0.0,0.0,66,0.00,,,0.00,Wunderground v.1.13,2013-12-20 00:22:00,
2013-12-19 19:27:00,63.3,51.7,30.16,ENE,74,0.0,0.0,66,0.00,,,0.00,Wunderground v.1.13,2013-12-20 00:27:00,
2013-12-19 19:32:00,63.2,52.1,30.17,ENE,74,0.0,0.0,67,0.00,,,0.00,Wunderground v.1.13,2013-12-20 00:32:00,
2013-12-19 19:37:00,63.2,52.1,30.17,ENE,74,0.0,0.0,67,0.00,,,0.00,Wunderground v.1.13,2013-12-20 00:37:00,
2013-12-19 19:42:00,63.1,52.0,30.17,ENE,74,0.0,0.0,67,0.00,,,0.00,Wunderground v.1.13,2013-12-20 00:42:00,
2013-12-19 19:47:00,63.0,52.3,30.17,ENE,74,0.0,0.0,68,0.00,,,0.00,Wunderground v.1.13,2013-12-20 00:47:00,
2013-12-19 19:52:00,62.8,52.1,30.17,ENE,74,0.0,0.0,68,0.00,,,0.00,Wunderground v.1.13,2013-12-20 00:52:00,
2013-12-19 19:57:00,62.7,52.0,30.17,ENE,74,0.0,0.0,68,0.00,,,0.00,Wunderground v.1.13,2013-12-20 00:57:00,
2013-12-19 20:02:00,62.5,52.2,30.17,ENE,74,0.0,0.0,69,0.00,,,0.00,Wunderground v.1.13,2013-12-20 01:02:00,
2013-12-19 20:07:00,62.3,52.0,30.17,ENE,74,0.0,0.0,69,0.00,,,0.00,Wunderground v.1.13,2013-12-20 01:07:00,
2013-12-19 20:12:00,62.1,51.8,30.18,ENE,74,0.0,0.0,69,0.00,,,0.00,Wunderground v.1.13,2013-12-20 01:12:00,
2013-12-19 20:17:00,61.9,51.6,30.18,ENE,74,0.0,0.0,69,0.00,,,0.00,Wunderground v.1.13,2013-12-20 01:17:00,
2013-12-19 20:22:00,61.7,51.8,30.18,ENE,74,0.0,0.0,70,0.00,,,0.00,Wunderground v.1.13,2013-12-20 01:22:00,
2013-12-19 20:27:00,61.5,51.6,30.18,ENE,74,0.0,0.0,70,0.00,,,0.00,Wunderground v.1.13,2013-12-20 01:27:00,
2013-12-19 20:32:00,61.4,51.9,30.19,ENE,74,0.0,0.0,71,0.00,,,0.00,Wunderground v.1.13,2013-12-20 01:32:00,
2013-12-19 20:37:00,61.2,51.7,30.19,ENE,74,0.0,0.0,71,0.00,,,0.00,Wunderground v.1.13,2013-12-20 01:37:00,
2013-12-19 20:42:00,61.0,51.5,30.19,ENE,74,0.0,0.0,71,0.00,,,0.00,Wunderground v.1.13,2013-12-20 01:42:00,
2013-12-19 20:47:00,60.8,51.3,30.19,ENE,74,0.0,0.0,71,0.00,,,0.00,Wunderground v.1.13,2013-12-20 01:47:00,
2013-12-19 20:52:00,60.7,51.6,30.19,ENE,74,0.0,0.0,72,0.00,,,0.00,Wunderground v.1.13,2013-12-20 01:52:00,
2013-12-19 20:57:00,60.5,51.4,30.19,ENE,74,0.0,0.0,72,0.00,,,0.00,Wunderground v.1.13,2013-12-20 01:57:00,
2013-12-19 21:03:00,60.5,51.4,30.19,ENE,74,0.0,0.0,72,0.00,,,0.00,Wunderground v.1.13,2013-12-20 02:03:00,
2013-12-19 21:08:00,60.6,51.9,30.19,ENE,74,0.0,0.0,73,0.00,,,0.00,Wunderground v.1.13,2013-12-20 02:08:00,
2013-12-19 21:13:00,61.3,52.6,30.19,ENE,74,0.0,0.0,73,0.00,,,0.00,Wunderground v.1.13,2013-12-20 02:13:00,
2013-12-19 21:18:00,62.2,53.4,30.19,ENE,74,1.0,2.0,73,0.00,,,0.00,Wunderground v.1.13,2013-12-20 02:18:00,
2013-12-19 21:23:00,62.8,53.6,30.19,ENE,77,0.0,0.0,72,0.00,,,0.00,Wunderground v.1.13,2013-12-20 02:23:00,
2013-12-19 21:28:00,63.3,54.1,30.19,ENE,76,0.0,0.0,72,0.00,,,0.00,Wunderground v.1.13,2013-12-20 02:28:00,
2013-12-19 21:33:00,63.8,54.6,30.20,ENE,77,0.0,0.0,72,0.00,,,0.00,Wunderground v.1.13,2013-12-20 02:33:00,
2013-12-19 21:38:00,64.1,54.5,30.20,ENE,76,0.0,3.0,71,0.00,,,0.00,Wunderground v.1.13,2013-12-20 02:38:00,
2013-12-19 21:43:00,64.3,54.7,30.19,ENE,77,0.0,0.0,71,0.00,,,0.00,Wunderground v.1.13,2013-12-20 02:43:00,
2013-12-19 21:48:00,64.4,54.8,30.19,ENE,77,0.0,1.0,71,0.00,,,0.00,Wunderground v.1.13,2013-12-20 02:48:00,
2013-12-19 21:53:00,64.3,54.7,30.19,ENE,76,0.0,0.0,71,0.00,,,0.00,Wunderground v.1.13,2013-12-20 02:53:00,
2013-12-19 21:58:00,64.3,54.7,30.20,ENE,77,0.0,0.0,71,0.00,,,0.00,Wunderground v.1.13,2013-12-20 02:58:00,
2013-12-19 22:03:00,64.3,54.7,30.20,ENE,77,0.0,0.0,71,0.00,,,0.00,Wunderground v.1.13,2013-12-20 03:03:00,
2013-12-19 22:08:00,64.3,54.7,30.20,ENE,76,0.0,1.0,71,0.00,,,0.00,Wunderground v.1.13,2013-12-20 03:08:00,
2013-12-19 22:13:00,64.1,54.9,30.20,ENE,77,0.0,0.0,72,0.00,,,0.00,Wunderground v.1.13,2013-12-20 03:13:00,
2013-12-19 22:18:00,64.0,54.8,30.20,ENE,76,0.0,0.0,72,0.00,,,0.00,Wunderground v.1.13,2013-12-20 03:18:00,
2013-12-19 22:23:00,63.9,54.7,30.20,ENE,77,0.0,1.0,72,0.00,,,0.00,Wunderground v.1.13,2013-12-20 03:23:00,
2013-12-19 22:28:00,63.8,54.6,30.20,ENE,77,0.0,0.0,72,0.00,,,0.00,Wunderground v.1.13,2013-12-20 03:28:00,
2013-12-19 22:33:00,63.7,54.5,30.20,ENE,76,0.0,2.0,72,0.00,,,0.00,Wunderground v.1.13,2013-12-20 03:33:00,
2013-12-19 22:38:00,63.6,54.8,30.20,ENE,77,0.0,0.0,73,0.00,,,0.00,Wunderground v.1.13,2013-12-20 03:38:00,
2013-12-19 22:43:00,63.6,54.8,30.20,ENE,74,0.0,0.0,73,0.00,,,0.00,Wunderground v.1.13,2013-12-20 03:43:00,
2013-12-19 22:48:00,63.5,54.7,30.20,ENE,74,0.0,0.0,73,0.00,,,0.00,Wunderground v.1.13,2013-12-20 03:48:00,
2013-12-19 22:54:00,63.3,54.5,30.19,ENE,74,0.0,0.0,73,0.00,,,0.00,Wunderground v.1.13,2013-12-20 03:54:00,
2013-12-19 22:59:00,63.1,54.3,30.19,ENE,74,0.0,0.0,73,0.00,,,0.00,Wunderground v.1.13,2013-12-20 03:59:00,
2013-12-19 23:04:00,63.0,54.6,30.19,ENE,75,0.0,2.0,74,0.00,,,0.00,Wunderground v.1.13,2013-12-20 04:04:00,
2013-12-19 23:09:00,63.0,54.6,30.19,ENE,75,0.0,0.0,74,0.00,,,0.00,Wunderground v.1.13,2013-12-20 04:09:00,
2013-12-19 23:14:00,62.9,54.5,30.19,ENE,75,0.0,0.0,74,0.00,,,0.00,Wunderground v.1.13,2013-12-20 04:14:00,
2013-12-19 23:19:00,63.0,54.6,30.18,ENE,75,0.0,2.0,74,0.00,,,0.00,Wunderground v.1.13,2013-12-20 04:19:00,
2013-12-19 23:24:00,63.3,54.9,30.18,ENE,68,0.0,2.0,74,0.00,,,0.00,Wunderground v.1.13,2013-12-20 04:24:00,
2013-12-19 23:29:00,63.3,54.9,30.18,ENE,68,0.0,0.0,74,0.00,,,0.00,Wunderground v.1.13,2013-12-20 04:29:00,
2013-12-19 23:34:00,63.3,54.9,30.18,ENE,68,0.0,0.0,74,0.00,,,0.00,Wunderground v.1.13,2013-12-20 04:34:00,
2013-12-19 23:39:00,63.3,54.9,30.18,ENE,68,0.0,4.0,74,0.00,,,0.00,Wunderground v.1.13,2013-12-20 04:39:00,
2013-12-19 23:44:00,63.2,54.8,30.17,ENE,70,0.0,0.0,74,0.00,,,0.00,Wunderground v.1.13,2013-12-20 04:44:00,
2013-12-19 23:49:00,63.3,54.9,30.17,ENE,72,0.0,1.0,74,0.00,,,0.00,Wunderground v.1.13,2013-12-20 04:49:00,
2013-12-19 23:54:00,63.3,54.9,30.17,ENE,73,0.0,0.0,74,0.00,,,0.00,Wunderground v.1.13,2013-12-20 04:54:00,
2013-12-19 23:59:00,63.3,54.9,30.17,ESE,109,0.0,3.0,74,0.00,,,0.00,Wunderground v.1.13,2013-12-20 04:59:00,